Time,TemperatureF,DewpointF,PressureIn,WindDirection,WindDirectionDegrees,WindSpeedMPH,WindSpeedGustMPH,Humidity,HourlyPrecipIn,Conditions,Clouds,dailyrainin,SoftwareType,DateUTC
2013-08-21 00:01:00,62.3,60.2,30.14,South,180,0.0,0.0,93,0.00,,---,0.00,VWS V13.01,2013-08-21 04:01:00,
2013-08-21 00:06:00,62.2,60.2,30.14,South,180,0.0,0.0,93,0.00,,---,0.00,VWS V13.01,2013-08-21 04:06:00,
2013-08-21 00:11:00,62.1,60.1,30.14,South,180,0.0,0.0,93,0.00,,---,0.00,VWS V13.01,2013-08-21 04:11:00,
2013-08-21 00:16:00,62.0,60.0,30.14,South,180,0.0,0.0,93,0.00,,---,0.00,VWS V13.01,2013-08-21 04:16:00,
2013-08-21 00:21:00,61.8,59.8,30.15,South,180,0.0,0.0,93,0.00,,---,0.00,VWS V13.01,2013-08-21 04:21:00,
2013-08-21 00:26:00,61.6,59.3,30.15,South,180,0.0,0.0,92,0.00,,---,0.00,VWS V13.01,2013-08-21 04:26:00,
2013-08-21 00:31:00,61.5,59.2,30.15,South,180,0.0,0.0,92,0.00,,---,0.00,VWS V13.01,2013-08-21 04:31:00,
2013-08-21 00:36:00,61.4,59.4,30.15,South,180,0.0,0.0,93,0.00,,---,0.00,VWS V13.01,2013-08-21 04:36:00,
2013-08-21 00:41:00,61.3,59.3,30.15,South,180,0.0,0.0,93,0.00,,---,0.00,VWS V13.01,2013-08-21 04:41:00,
2013-08-21 00:46:00,61.2,59.2,30.15,South,180,0.0,0.0,93,0.00,,---,0.00,VWS V13.01,2013-08-21 04:46:00,
2013-08-21 00:51:00,61.1,59.1,30.15,South,180,0.0,0.0,93,0.00,,---,0.00,VWS V13.01,2013-08-21 04:51:00,
2013-08-21 00:56:00,61.1,59.1,30.14,South,180,0.0,0.0,93,0.00,,---,0.00,VWS V13.01,2013-08-21 04:56:00,
2013-08-21 01:01:00,61.1,59.4,30.15,South,180,0.0,0.0,94,0.00,,---,0.00,VWS V13.01,2013-08-21 05:01:00,
2013-08-21 01:06:00,61.1,59.4,30.15,South,180,0.0,0.0,94,0.00,,---,0.00,VWS V13.01,2013-08-21 05:06:00,
2013-08-21 01:11:00,61.0,59.3,30.14,South,180,0.0,0.0,94,0.00,,---,0.00,VWS V13.01,2013-08-21 05:11:00,
2013-08-21 01:16:00,60.9,59.2,30.14,South,180,0.0,0.0,94,0.00,,---,0.00,VWS V13.01,2013-08-21 05:16:00,
2013-08-21 01:21:00,60.7,59.0,30.14,South,180,0.0,0.0,94,0.00,,---,0.00,VWS V13.01,2013-08-21 05:21:00,
2013-08-21 01:26:00,60.6,58.9,30.14,South,180,0.0,0.0,94,0.00,,---,0.00,VWS V13.01,2013-08-21 05:26:00,
2013-08-21 01:31:00,60.5,58.5,30.14,South,180,0.0,0.0,93,0.00,,---,0.00,VWS V13.01,2013-08-21 05:31:00,
2013-08-21 01:36:00,60.3,58.3,30.15,South,180,0.0,0.0,93,0.00,,---,0.00,VWS V13.01,2013-08-21 05:36:00,
2013-08-21 01:41:00,60.2,58.5,30.15,South,180,0.0,0.0,94,0.00,,---,0.00,VWS V13.01,2013-08-21 05:41:00,
2013-08-21 01:46:00,60.2,58.5,30.14,South,180,0.0,0.0,94,0.00,,---,0.00,VWS V13.01,2013-08-21 05:46:00,
2013-08-21 01:51:00,60.2,58.5,30.14,South,180,0.0,0.0,94,0.00,,---,0.00,VWS V13.01,2013-08-21 05:51:00,
2013-08-21 01:56:00,60.1,58.4,30.14,South,180,0.0,0.0,94,0.00,,---,0.00,VWS V13.01,2013-08-21 05:56:00,
2013-08-21 02:01:00,60.0,58.3,30.15,South,180,0.0,0.0,94,0.00,,---,0.00,VWS V13.01,2013-08-21 06:01:00,
2013-08-21 02:06:00,59.8,58.1,30.15,South,180,0.0,0.0,94,0.00,,---,0.00,VWS V13.01,2013-08-21 06:06:00,
2013-08-21 02:11:00,59.8,58.1,30.15,South,180,0.0,0.0,94,0.00,,---,0.00,VWS V13.01,2013-08-21 06:11:00,
2013-08-21 02:16:00,59.8,58.1,30.15,South,180,0.0,0.0,94,0.00,,---,0.00,VWS V13.01,2013-08-21 06:16:00,
2013-08-21 02:21:00,59.8,58.1,30.15,South,180,0.0,0.0,94,0.00,,---,0.00,VWS V13.01,2013-08-21 06:21:00,
2013-08-21 02:26:00,59.7,58.0,30.15,South,180,0.0,0.0,94,0.00,,---,0.00,VWS V13.01,2013-08-21 06:26:00,
2013-08-21 02:31:00,59.6,58.2,30.15,South,180,0.0,0.0,95,0.00,,---,0.00,VWS V13.01,2013-08-21 06:31:00,
2013-08-21 02:36:00,59.5,57.8,30.15,South,180,0.0,0.0,94,0.00,,---,0.00,VWS V13.01,2013-08-21 06:36:00,
2013-08-21 02:41:00,59.3,57.6,30.15,South,180,0.0,0.0,94,0.00,,---,0.00,VWS V13.01,2013-08-21 06:41:00,
2013-08-21 02:46:00,59.3,57.6,30.15,South,180,0.0,0.0,94,0.00,,---,0.00,VWS V13.01,2013-08-21 06:46:00,
2013-08-21 02:51:00,59.3,57.6,30.15,South,180,0.0,0.0,94,0.00,,---,0.00,VWS V13.01,2013-08-21 06:51:00,
2013-08-21 02:56:00,59.2,57.8,30.15,South,180,0.0,0.0,95,0.00,,---,0.00,VWS V13.01,2013-08-21 06:56:00,
2013-08-21 03:01:00,59.1,57.7,30.15,South,180,0.0,0.0,95,0.00,,---,0.00,VWS V13.01,2013-08-21 07:01:00,
2013-08-21 03:06:00,59.1,57.7,30.15,South,180,0.0,0.0,95,0.00,,---,0.00,VWS V13.01,2013-08-21 07:06:00,
2013-08-21 03:11:00,59.0,57.6,30.15,South,180,0.0,0.0,95,0.00,,---,0.00,VWS V13.01,2013-08-21 07:11:00,
2013-08-21 03:16:00,59.0,57.6,30.14,South,180,0.0,0.0,95,0.00,,---,0.00,VWS V13.01,2013-08-21 07:16:00,
2013-08-21 03:21:00,58.9,57.5,30.15,South,180,0.0,0.0,95,0.00,,---,0.00,VWS V13.01,2013-08-21 07:21:00,
2013-08-21 03:26:00,58.8,57.4,30.14,South,180,0.0,0.0,95,0.00,,---,0.00,VWS V13.01,2013-08-21 07:26:00,
2013-08-21 03:31:00,58.8,57.4,30.14,South,180,0.0,0.0,95,0.00,,---,0.00,VWS V13.01,2013-08-21 07:31:00,
2013-08-21 03:36:00,58.7,57.3,30.14,South,180,0.0,0.0,95,0.00,,---,0.00,VWS V13.01,2013-08-21 07:36:00,
2013-08-21 03:41:00,58.6,57.2,30.14,South,180,0.0,0.0,95,0.00,,---,0.00,VWS V13.01,2013-08-21 07:41:00,
2013-08-21 03:46:00,58.6,57.2,30.14,South,180,0.0,0.0,95,0.00,,---,0.00,VWS V13.01,2013-08-21 07:46:00,
2013-08-21 03:51:00,58.6,57.2,30.14,South,180,0.0,1.0,95,0.00,,---,0.00,VWS V13.01,2013-08-21 07:51:00,
2013-08-21 03:56:00,58.6,57.2,30.14,South,180,0.0,1.0,95,0.00,,---,0.00,VWS V13.01,2013-08-21 07:56:00,
2013-08-21 04:01:00,58.6,57.2,30.14,South,180,0.0,0.0,95,0.00,,---,0.00,VWS V13.01,2013-08-21 08:01:00,
2013-08-21 04:06:00,58.5,57.1,30.15,South,180,0.0,0.0,95,0.00,,---,0.00,VWS V13.01,2013-08-21 08:06:00,
2013-08-21 04:11:00,58.4,57.0,30.14,South,180,0.0,0.0,95,0.00,,---,0.00,VWS V13.01,2013-08-21 08:11:00,
2013-08-21 04:16:00,58.2,56.8,30.14,South,180,0.0,0.0,95,0.00,,---,0.00,VWS V13.01,2013-08-21 08:16:00,
2013-08-21 04:21:00,58.1,56.7,30.14,South,180,0.0,0.0,95,0.00,,---,0.00,VWS V13.01,2013-08-21 08:21:00,
2013-08-21 04:26:00,58.0,56.6,30.14,South,180,0.0,0.0,95,0.00,,---,0.00,VWS V13.01,2013-08-21 08:26:00,
2013-08-21 04:31:00,58.0,56.6,30.14,South,180,0.0,0.0,95,0.00,,---,0.00,VWS V13.01,2013-08-21 08:31:00,
2013-08-21 04:36:00,57.9,56.5,30.14,South,180,0.0,0.0,95,0.00,,---,0.00,VWS V13.01,2013-08-21 08:36:00,
2013-08-21 04:41:00,57.8,56.4,30.14,South,180,0.0,0.0,95,0.00,,---,0.00,VWS V13.01,2013-08-21 08:41:00,
2013-08-21 04:46:00,57.7,56.3,30.14,South,180,0.0,0.0,95,0.00,,---,0.00,VWS V13.01,2013-08-21 08:46:00,
2013-08-21 04:51:00,57.7,56.3,30.14,South,180,0.0,0.0,95,0.00,,---,0.00,VWS V13.01,2013-08-21 08:51:00,
2013-08-21 04:56:00,57.7,56.3,30.14,South,180,0.0,0.0,95,0.00,,---,0.00,VWS V13.01,2013-08-21 08:56:00,
2013-08-21 05:01:00,57.5,56.1,30.15,South,180,0.0,0.0,95,0.00,,---,0.00,VWS V13.01,2013-08-21 09:01:00,
2013-08-21 05:06:00,57.4,56.0,30.15,South,180,0.0,0.0,95,0.00,,---,0.00,VWS V13.01,2013-08-21 09:06:00,
2013-08-21 05:11:00,57.3,55.9,30.15,South,180,0.0,0.0,95,0.00,,---,0.00,VWS V13.01,2013-08-21 09:11:00,
2013-08-21 05:16:00,57.2,55.8,30.15,South,180,0.0,0.0,95,0.00,,---,0.00,VWS V13.01,2013-08-21 09:16:00,
2013-08-21 05:21:00,57.1,55.7,30.15,South,180,0.0,0.0,95,0.00,,---,0.00,VWS V13.01,2013-08-21 09:21:00,
2013-08-21 05:26:00,57.3,56.2,30.15,South,180,0.0,0.0,96,0.00,,---,0.00,VWS V13.01,2013-08-21 09:26:00,
2013-08-21 05:31:00,57.3,56.2,30.15,South,180,0.0,0.0,96,0.00,,---,0.00,VWS V13.01,2013-08-21 09:31:00,
2013-08-21 05:36:00,57.2,56.1,30.15,South,180,0.0,0.0,96,0.00,,---,0.00,VWS V13.01,2013-08-21 09:36:00,
2013-08-21 05:41:00,57.2,55.8,30.15,South,180,0.0,0.0,95,0.00,,---,0.00,VWS V13.01,2013-08-21 09:41:00,
2013-08-21 05:46:00,57.1,56.0,30.15,South,180,0.0,0.0,96,0.00,,---,0.00,VWS V13.01,2013-08-21 09:46:00,
2013-08-21 05:51:00,57.2,56.1,30.15,South,180,0.0,0.0,96,0.00,,---,0.00,VWS V13.01,2013-08-21 09:51:00,
2013-08-21 05:56:00,57.2,56.1,30.15,South,180,0.0,0.0,96,0.00,,---,0.00,VWS V13.01,2013-08-21 09:56:00,
2013-08-21 06:01:00,57.2,56.1,30.15,South,180,0.0,0.0,96,0.00,,---,0.00,VWS V13.01,2013-08-21 10:01:00,
2013-08-21 06:06:00,57.2,56.1,30.15,South,180,0.0,1.0,96,0.00,,---,0.00,VWS V13.01,2013-08-21 10:06:00,
2013-08-21 06:11:00,57.2,56.1,30.15,South,180,0.0,0.0,96,0.00,,---,0.00,VWS V13.01,2013-08-21 10:11:00,
2013-08-21 06:16:00,57.3,56.2,30.15,South,180,1.0,1.0,96,0.00,,---,0.00,VWS V13.01,2013-08-21 10:16:00,
2013-08-21 06:21:00,57.4,56.3,30.15,South,180,0.0,1.0,96,0.00,,---,0.00,VWS V13.01,2013-08-21 10:21:00,
2013-08-21 06:26:00,57.4,56.3,30.16,South,180,0.0,1.0,96,0.00,,---,0.00,VWS V13.01,2013-08-21 10:26:00,
2013-08-21 06:31:00,57.4,56.3,30.16,South,180,0.0,0.0,96,0.00,,---,0.00,VWS V13.01,2013-08-21 10:31:00,
2013-08-21 06:36:00,57.3,56.2,30.16,South,180,0.0,0.0,96,0.00,,---,0.00,VWS V13.01,2013-08-21 10:36:00,
2013-08-21 06:41:00,57.3,56.2,30.16,South,180,0.0,0.0,96,0.00,,---,0.00,VWS V13.01,2013-08-21 10:41:00,
2013-08-21 06:46:00,57.3,56.2,30.16,South,180,0.0,1.0,96,0.00,,---,0.00,VWS V13.01,2013-08-21 10:46:00,
2013-08-21 06:51:00,57.3,56.2,30.16,South,180,0.0,0.0,96,0.00,,---,0.00,VWS V13.01,2013-08-21 10:51:00,
2013-08-21 06:56:00,57.3,56.2,30.16,South,180,0.0,0.0,96,0.00,,---,0.00,VWS V13.01,2013-08-21 10:56:00,
2013-08-21 07:01:00,57.2,56.1,30.16,South,180,0.0,0.0,96,0.00,,---,0.00,VWS V13.01,2013-08-21 11:01:00,
2013-08-21 07:06:00,57.2,56.1,30.16,South,180,0.0,0.0,96,0.00,,---,0.00,VWS V13.01,2013-08-21 11:06:00,
2013-08-21 07:11:00,57.2,56.1,30.16,South,180,0.0,0.0,96,0.00,,---,0.00,VWS V13.01,2013-08-21 11:11:00,
2013-08-21 07:16:00,57.3,56.2,30.16,South,180,0.0,0.0,96,0.00,,---,0.00,VWS V13.01,2013-08-21 11:16:00,
2013-08-21 07:21:00,57.4,56.3,30.16,South,180,0.0,0.0,96,0.00,,---,0.00,VWS V13.01,2013-08-21 11:21:00,
2013-08-21 07:26:00,57.7,56.6,30.16,South,180,0.0,0.0,96,0.00,,---,0.00,VWS V13.01,2013-08-21 11:26:00,
2013-08-21 07:31:00,58.2,57.4,30.16,South,180,1.0,1.0,97,0.00,,---,0.00,VWS V13.01,2013-08-21 11:31:00,
2013-08-21 07:36:00,58.5,57.4,30.17,South,180,0.0,1.0,96,0.00,,---,0.00,VWS V13.01,2013-08-21 11:36:00,
2013-08-21 07:41:00,59.1,58.2,30.17,South,180,0.0,0.0,97,0.00,,---,0.00,VWS V13.01,2013-08-21 11:41:00,
2013-08-21 07:46:00,59.7,58.8,30.17,South,180,0.0,1.0,97,0.00,,---,0.00,VWS V13.01,2013-08-21 11:46:00,
2013-08-21 07:51:00,60.1,59.2,30.17,South,180,0.0,0.0,97,0.00,,---,0.00,VWS V13.01,2013-08-21 11:51:00,
2013-08-21 07:56:00,60.4,59.3,30.17,South,180,0.0,1.0,96,0.00,,---,0.00,VWS V13.01,2013-08-21 11:56:00,
2013-08-21 08:01:00,60.8,59.4,30.17,South,180,0.0,1.0,95,0.00,,---,0.00,VWS V13.01,2013-08-21 12:01:00,
2013-08-21 08:06:00,61.3,59.6,30.17,South,180,0.0,1.0,94,0.00,,---,0.00,VWS V13.01,2013-08-21 12:06:00,
2013-08-21 08:11:00,61.9,59.9,30.17,South,180,0.0,0.0,93,0.00,,---,0.00,VWS V13.01,2013-08-21 12:11:00,
2013-08-21 08:16:00,62.6,60.2,30.17,South,180,0.0,1.0,92,0.00,,---,0.00,VWS V13.01,2013-08-21 12:16:00,
2013-08-21 08:21:00,63.2,60.8,30.17,South,180,0.0,0.0,92,0.00,,---,0.00,VWS V13.01,2013-08-21 12:21:00,
2013-08-21 08:26:00,64.0,61.0,30.17,South,180,0.0,2.0,90,0.00,,---,0.00,VWS V13.01,2013-08-21 12:26:00,
2013-08-21 08:31:00,64.5,60.9,30.17,South,180,0.0,0.0,88,0.00,,---,0.00,VWS V13.01,2013-08-21 12:31:00,
2013-08-21 08:36:00,65.0,61.4,30.17,South,180,0.0,1.0,88,0.00,,---,0.00,VWS V13.01,2013-08-21 12:36:00,
2013-08-21 08:41:00,65.4,61.4,30.17,South,180,1.0,1.0,87,0.00,,---,0.00,VWS V13.01,2013-08-21 12:41:00,
2013-08-21 08:46:00,66.0,62.3,30.17,South,180,0.0,1.0,88,0.00,,---,0.00,VWS V13.01,2013-08-21 12:46:00,
2013-08-21 08:51:00,66.7,62.4,30.17,South,180,0.0,0.0,86,0.00,,---,0.00,VWS V13.01,2013-08-21 12:51:00,
2013-08-21 08:56:00,67.7,63.0,30.17,ESE,103,0.0,3.0,85,0.00,,---,0.00,VWS V13.01,2013-08-21 12:56:00,
2013-08-21 09:01:00,68.6,63.2,30.17,ESE,103,1.0,1.0,83,0.00,,---,0.00,VWS V13.01,2013-08-21 13:01:00,
2013-08-21 09:06:00,69.4,63.3,30.17,ESE,103,0.0,1.0,81,0.00,,---,0.00,VWS V13.01,2013-08-21 13:06:00,
2013-08-21 09:11:00,69.9,63.1,30.17,East,88,1.0,2.0,79,0.00,,---,0.00,VWS V13.01,2013-08-21 13:11:00,
2013-08-21 09:16:00,70.3,63.5,30.17,East,87,0.0,2.0,79,0.00,,---,0.00,VWS V13.01,2013-08-21 13:16:00,
2013-08-21 09:21:00,70.6,63.8,30.17,East,87,0.0,2.0,79,0.00,,---,0.00,VWS V13.01,2013-08-21 13:21:00,
2013-08-21 09:26:00,71.3,64.1,30.17,East,87,0.0,2.0,78,0.00,,---,0.00,VWS V13.01,2013-08-21 13:26:00,
2013-08-21 09:31:00,71.9,65.0,30.17,East,86,1.0,3.0,79,0.00,,---,0.00,VWS V13.01,2013-08-21 13:31:00,
2013-08-21 09:36:00,72.6,64.6,30.16,East,86,1.0,3.0,76,0.00,,---,0.00,VWS V13.01,2013-08-21 13:36:00,
2013-08-21 09:41:00,73.3,64.9,30.16,East,86,0.0,2.0,75,0.00,,---,0.00,VWS V13.01,2013-08-21 13:41:00,
2013-08-21 09:46:00,73.9,65.5,30.16,NNE,28,0.0,3.0,75,0.00,,---,0.00,VWS V13.01,2013-08-21 13:46:00,
2013-08-21 09:51:00,74.0,65.6,30.16,NNE,30,3.0,4.0,75,0.00,,---,0.00,VWS V13.01,2013-08-21 13:51:00,
2013-08-21 09:56:00,74.2,65.4,30.16,ENE,62,0.0,4.0,74,0.00,,---,0.00,VWS V13.01,2013-08-21 13:56:00,
2013-08-21 10:01:00,74.8,66.0,30.16,ENE,59,2.0,2.0,74,0.00,,---,0.00,VWS V13.01,2013-08-21 14:01:00,
2013-08-21 10:06:00,75.3,66.8,30.16,ENE,59,2.0,2.0,75,0.00,,---,0.00,VWS V13.01,2013-08-21 14:06:00,
2013-08-21 10:11:00,75.7,66.0,30.16,NNE,31,2.0,3.0,72,0.00,,---,0.00,VWS V13.01,2013-08-21 14:11:00,
2013-08-21 10:16:00,75.7,66.4,30.16,NNE,20,1.0,3.0,73,0.00,,---,0.00,VWS V13.01,2013-08-21 14:16:00,
2013-08-21 10:21:00,76.0,66.7,30.17,NNE,27,0.0,1.0,73,0.00,,---,0.00,VWS V13.01,2013-08-21 14:21:00,
2013-08-21 10:26:00,76.7,66.6,30.17,NNE,28,1.0,2.0,71,0.00,,---,0.00,VWS V13.01,2013-08-21 14:26:00,
2013-08-21 10:31:00,77.3,66.3,30.17,NNE,29,0.0,1.0,69,0.00,,---,0.00,VWS V13.01,2013-08-21 14:31:00,
2013-08-21 10:36:00,78.0,66.2,30.17,NNE,32,1.0,2.0,67,0.00,,---,0.00,VWS V13.01,2013-08-21 14:36:00,
2013-08-21 10:41:00,78.4,66.1,30.17,SSE,159,1.0,3.0,66,0.00,,---,0.00,VWS V13.01,2013-08-21 14:41:00,
2013-08-21 10:46:00,78.5,66.2,30.17,SSE,157,0.0,3.0,66,0.00,,---,0.00,VWS V13.01,2013-08-21 14:46:00,
2013-08-21 10:51:00,79.0,66.2,30.17,SE,145,3.0,4.0,65,0.00,,---,0.00,VWS V13.01,2013-08-21 14:51:00,
2013-08-21 10:56:00,79.5,66.3,30.17,SE,142,1.0,4.0,64,0.00,,---,0.00,VWS V13.01,2013-08-21 14:56:00,
2013-08-21 11:01:00,79.6,65.9,30.17,South,176,1.0,1.0,63,0.00,,---,0.00,VWS V13.01,2013-08-21 15:01:00,
2013-08-21 11:06:00,79.7,66.9,30.17,WNW,287,0.0,5.0,65,0.00,,---,0.00,VWS V13.01,2013-08-21 15:06:00,
2013-08-21 11:11:00,79.4,66.2,30.17,SW,227,4.0,4.0,64,0.00,,---,0.00,VWS V13.01,2013-08-21 15:11:00,
2013-08-21 11:16:00,79.2,65.5,30.17,West,273,0.0,4.0,63,0.00,,---,0.00,VWS V13.01,2013-08-21 15:16:00,
2013-08-21 11:21:00,79.4,66.2,30.17,NW,325,1.0,2.0,64,0.00,,---,0.00,VWS V13.01,2013-08-21 15:21:00,
2013-08-21 11:26:00,79.7,66.0,30.17,NNW,329,0.0,3.0,63,0.00,,---,0.00,VWS V13.01,2013-08-21 15:26:00,
2013-08-21 11:31:00,80.0,65.8,30.17,SSW,192,1.0,3.0,62,0.00,,---,0.00,VWS V13.01,2013-08-21 15:31:00,
2013-08-21 11:36:00,80.2,66.0,30.16,SSW,205,2.0,4.0,62,0.00,,---,0.00,VWS V13.01,2013-08-21 15:36:00,
2013-08-21 11:41:00,80.4,65.3,30.16,SSW,205,1.0,1.0,60,0.00,,---,0.00,VWS V13.01,2013-08-21 15:41:00,
2013-08-21 11:46:00,80.6,65.9,30.16,South,191,1.0,2.0,61,0.00,,---,0.00,VWS V13.01,2013-08-21 15:46:00,
2013-08-21 11:51:00,81.0,65.8,30.16,ENE,69,1.0,1.0,60,0.00,,---,0.00,VWS V13.01,2013-08-21 15:51:00,
2013-08-21 11:56:00,81.5,65.3,30.16,SSE,161,1.0,3.0,58,0.00,,---,0.00,VWS V13.01,2013-08-21 15:56:00,
2013-08-21 12:01:00,81.9,66.7,30.15,SSW,207,3.0,6.0,60,0.00,,---,0.00,VWS V13.01,2013-08-21 16:01:00,
2013-08-21 12:06:00,82.0,65.8,30.15,SSW,202,3.0,6.0,58,0.00,,---,0.00,VWS V13.01,2013-08-21 16:06:00,
2013-08-21 12:11:00,82.1,64.9,30.15,SSE,154,2.0,4.0,56,0.00,,---,0.00,VWS V13.01,2013-08-21 16:11:00,
2013-08-21 12:16:00,82.1,66.8,30.14,WSW,238,0.0,5.0,60,0.00,,---,0.00,VWS V13.01,2013-08-21 16:16:00,
2013-08-21 12:21:00,82.2,65.5,30.14,South,186,3.0,7.0,57,0.00,,---,0.00,VWS V13.01,2013-08-21 16:21:00,
2013-08-21 12:26:00,82.2,66.0,30.14,SSW,211,4.0,7.0,58,0.00,,---,0.00,VWS V13.01,2013-08-21 16:26:00,
2013-08-21 12:31:00,82.0,66.3,30.14,SSW,208,5.0,6.0,59,0.00,,---,0.00,VWS V13.01,2013-08-21 16:31:00,
2013-08-21 12:36:00,81.8,65.6,30.14,SSW,209,3.0,7.0,58,0.00,,---,0.00,VWS V13.01,2013-08-21 16:36:00,
2013-08-21 12:41:00,81.8,66.1,30.14,SSW,200,3.0,7.0,59,0.00,,---,0.00,VWS V13.01,2013-08-21 16:41:00,
2013-08-21 12:46:00,82.0,66.8,30.14,South,187,3.0,7.0,60,0.00,,---,0.00,VWS V13.01,2013-08-21 16:46:00,
2013-08-21 12:51:00,82.1,65.9,30.14,West,261,0.0,2.0,58,0.00,,---,0.00,VWS V13.01,2013-08-21 16:51:00,
2013-08-21 12:56:00,82.5,67.7,30.14,WSW,252,0.0,7.0,61,0.00,,---,0.00,VWS V13.01,2013-08-21 16:56:00,
2013-08-21 13:01:00,82.7,66.4,30.13,WNW,301,1.0,4.0,58,0.00,,---,0.00,VWS V13.01,2013-08-21 17:01:00,
2013-08-21 13:06:00,82.7,66.9,30.13,SW,227,4.0,5.0,59,0.00,,---,0.00,VWS V13.01,2013-08-21 17:06:00,
2013-08-21 13:11:00,83.2,66.4,30.13,SSW,201,4.0,5.0,57,0.00,,---,0.00,VWS V13.01,2013-08-21 17:11:00,
2013-08-21 13:16:00,83.6,65.7,30.13,South,180,3.0,8.0,55,0.00,,---,0.00,VWS V13.01,2013-08-21 17:16:00,
2013-08-21 13:21:00,83.6,66.3,30.13,West,266,0.0,4.0,56,0.00,,---,0.00,VWS V13.01,2013-08-21 17:21:00,
2013-08-21 13:26:00,83.5,64.0,30.13,SSW,206,5.0,12.0,52,0.00,,---,0.00,VWS V13.01,2013-08-21 17:26:00,
2013-08-21 13:31:00,83.6,66.8,30.13,SW,236,4.0,7.0,57,0.00,,---,0.00,VWS V13.01,2013-08-21 17:31:00,
2013-08-21 13:36:00,83.7,66.3,30.12,WNW,295,0.0,7.0,56,0.00,,---,0.00,VWS V13.01,2013-08-21 17:36:00,
2013-08-21 13:41:00,83.9,67.6,30.12,SW,229,6.0,9.0,58,0.00,,---,0.00,VWS V13.01,2013-08-21 17:41:00,
2013-08-21 13:46:00,83.9,68.1,30.12,WNW,302,0.0,9.0,59,0.00,,---,0.00,VWS V13.01,2013-08-21 17:46:00,
2013-08-21 13:52:00,84.2,67.3,30.12,SW,221,4.0,8.0,57,0.00,,---,0.00,VWS V13.01,2013-08-21 17:52:00,
2013-08-21 13:57:00,84.0,64.5,30.12,NW,315,2.0,8.0,52,0.00,,---,0.00,VWS V13.01,2013-08-21 17:57:00,
2013-08-21 14:02:00,83.8,66.4,30.12,WNW,296,4.0,9.0,56,0.00,,---,0.00,VWS V13.01,2013-08-21 18:02:00,
2013-08-21 14:07:00,83.7,64.2,30.12,SW,218,3.0,9.0,52,0.00,,---,0.00,VWS V13.01,2013-08-21 18:07:00,
2013-08-21 14:12:00,84.0,65.6,30.12,SSW,209,0.0,3.0,54,0.00,,---,0.00,VWS V13.01,2013-08-21 18:12:00,
2013-08-21 14:17:00,84.3,65.3,30.12,SW,236,6.0,6.0,53,0.00,,---,0.00,VWS V13.01,2013-08-21 18:17:00,
2013-08-21 14:22:00,84.3,65.3,30.11,West,280,2.0,4.0,53,0.00,,---,0.00,VWS V13.01,2013-08-21 18:22:00,
2013-08-21 14:27:00,84.5,66.6,30.11,WNW,288,5.0,5.0,55,0.00,,---,0.00,VWS V13.01,2013-08-21 18:27:00,
2013-08-21 14:32:00,84.5,66.1,30.11,SW,230,5.0,7.0,54,0.00,,---,0.00,VWS V13.01,2013-08-21 18:32:00,
2013-08-21 14:37:00,84.3,63.7,30.11,SSE,167,1.0,9.0,50,0.00,,---,0.00,VWS V13.01,2013-08-21 18:37:00,
2013-08-21 14:42:00,84.6,64.5,30.11,WSW,256,1.0,7.0,51,0.00,,---,0.00,VWS V13.01,2013-08-21 18:42:00,
2013-08-21 14:47:00,84.7,63.5,30.11,SSW,207,2.0,9.0,49,0.00,,---,0.00,VWS V13.01,2013-08-21 18:47:00,
2013-08-21 14:52:00,84.8,65.2,30.10,SSW,202,4.0,5.0,52,0.00,,---,0.00,VWS V13.01,2013-08-21 18:52:00,
2013-08-21 14:57:00,85.0,65.4,30.10,SSW,192,3.0,8.0,52,0.00,,---,0.00,VWS V13.01,2013-08-21 18:57:00,
2013-08-21 15:02:00,85.0,64.9,30.10,SW,224,2.0,6.0,51,0.00,,---,0.00,VWS V13.01,2013-08-21 19:02:00,
2013-08-21 15:07:00,85.1,67.1,30.10,SW,229,6.0,6.0,55,0.00,,---,0.00,VWS V13.01,2013-08-21 19:07:00,
2013-08-21 15:12:00,84.8,65.2,30.10,WSW,253,6.0,7.0,52,0.00,,---,0.00,VWS V13.01,2013-08-21 19:12:00,
2013-08-21 15:17:00,84.5,66.1,30.09,West,265,3.0,7.0,54,0.00,,---,0.00,VWS V13.01,2013-08-21 19:17:00,
2013-08-21 15:22:00,84.3,66.4,30.09,WSW,253,2.0,3.0,55,0.00,,---,0.00,VWS V13.01,2013-08-21 19:22:00,
2013-08-21 15:27:00,84.1,66.7,30.09,WSW,254,0.0,5.0,56,0.00,,---,0.00,VWS V13.01,2013-08-21 19:27:00,
2013-08-21 15:32:00,84.2,65.2,30.08,SW,232,4.0,6.0,53,0.00,,---,0.00,VWS V13.01,2013-08-21 19:32:00,
2013-08-21 15:37:00,84.2,65.8,30.08,SW,223,5.0,6.0,54,0.00,,---,0.00,VWS V13.01,2013-08-21 19:37:00,
2013-08-21 15:42:00,84.4,66.5,30.08,West,260,1.0,6.0,55,0.00,,---,0.00,VWS V13.01,2013-08-21 19:42:00,
2013-08-21 15:47:00,84.6,66.7,30.08,NW,322,1.0,7.0,55,0.00,,---,0.00,VWS V13.01,2013-08-21 19:47:00,
2013-08-21 15:52:00,84.7,65.7,30.08,WSW,248,5.0,5.0,53,0.00,,---,0.00,VWS V13.01,2013-08-21 19:52:00,
2013-08-21 15:57:00,84.9,65.9,30.08,ESE,115,1.0,5.0,53,0.00,,---,0.00,VWS V13.01,2013-08-21 19:57:00,
2013-08-21 16:02:00,85.2,67.2,30.07,SW,221,1.0,3.0,55,0.00,,---,0.00,VWS V13.01,2013-08-21 20:02:00,
2013-08-21 16:07:00,86.1,67.0,30.07,SW,215,2.0,5.0,53,0.00,,---,0.00,VWS V13.01,2013-08-21 20:07:00,
2013-08-21 16:12:00,86.6,67.4,30.07,South,171,2.0,3.0,53,0.00,,---,0.00,VWS V13.01,2013-08-21 20:12:00,
2013-08-21 16:17:00,86.5,67.9,30.07,West,275,3.0,5.0,54,0.00,,---,0.00,VWS V13.01,2013-08-21 20:17:00,
2013-08-21 16:22:00,86.3,67.2,30.07,WSW,240,5.0,7.0,53,0.00,,---,0.00,VWS V13.01,2013-08-21 20:22:00,
2013-08-21 16:27:00,86.2,67.1,30.07,SSW,209,1.0,7.0,53,0.00,,---,0.00,VWS V13.01,2013-08-21 20:27:00,
2013-08-21 16:32:00,86.1,66.4,30.07,WSW,238,1.0,4.0,52,0.00,,---,0.00,VWS V13.01,2013-08-21 20:32:00,
2013-08-21 16:37:00,86.3,67.2,30.07,SW,221,6.0,6.0,53,0.00,,---,0.00,VWS V13.01,2013-08-21 20:37:00,
2013-08-21 16:42:00,86.4,67.8,30.07,SW,235,4.0,5.0,54,0.00,,---,0.00,VWS V13.01,2013-08-21 20:42:00,
2013-08-21 16:47:00,85.8,66.7,30.07,SW,227,1.0,5.0,53,0.00,,---,0.00,VWS V13.01,2013-08-21 20:47:00,
2013-08-21 16:52:00,85.0,66.5,30.07,WNW,291,3.0,4.0,54,0.00,,---,0.00,VWS V13.01,2013-08-21 20:52:00,
2013-08-21 16:57:00,84.3,65.9,30.07,SSW,213,3.0,5.0,54,0.00,,---,0.00,VWS V13.01,2013-08-21 20:57:00,
2013-08-21 17:02:00,83.9,66.0,30.07,SSW,213,0.0,2.0,55,0.00,,---,0.00,VWS V13.01,2013-08-21 21:02:00,
2013-08-21 17:07:00,83.7,66.3,30.06,SW,221,1.0,4.0,56,0.00,,---,0.00,VWS V13.01,2013-08-21 21:07:00,
2013-08-21 17:12:00,83.4,66.6,30.07,SW,236,0.0,2.0,57,0.00,,---,0.00,VWS V13.01,2013-08-21 21:12:00,
2013-08-21 17:17:00,83.0,66.7,30.07,SW,229,3.0,5.0,58,0.00,,---,0.00,VWS V13.01,2013-08-21 21:17:00,
2013-08-21 17:22:00,82.7,66.4,30.06,SSW,213,5.0,6.0,58,0.00,,---,0.00,VWS V13.01,2013-08-21 21:22:00,
2013-08-21 17:27:00,82.4,67.1,30.06,SSW,213,6.0,6.0,60,0.00,,---,0.00,VWS V13.01,2013-08-21 21:27:00,
2013-08-21 17:32:00,82.2,66.9,30.06,SSW,210,4.0,5.0,60,0.00,,---,0.00,VWS V13.01,2013-08-21 21:32:00,
2013-08-21 17:37:00,82.1,66.8,30.06,SW,230,4.0,7.0,60,0.00,,---,0.00,VWS V13.01,2013-08-21 21:37:00,
2013-08-21 17:42:00,81.9,66.7,30.07,SSW,213,3.0,6.0,60,0.00,,---,0.00,VWS V13.01,2013-08-21 21:42:00,
2013-08-21 17:47:00,81.8,67.1,30.06,SSW,212,4.0,6.0,61,0.00,,---,0.00,VWS V13.01,2013-08-21 21:47:00,
2013-08-21 17:52:00,81.6,66.4,30.06,SW,232,1.0,6.0,60,0.00,,---,0.00,VWS V13.01,2013-08-21 21:52:00,
2013-08-21 17:57:00,81.5,68.2,30.06,South,182,0.0,6.0,64,0.00,,---,0.00,VWS V13.01,2013-08-21 21:57:00,
2013-08-21 18:02:00,81.2,68.8,30.06,South,182,0.0,1.0,66,0.00,,---,0.00,VWS V13.01,2013-08-21 22:02:00,
2013-08-21 18:07:00,80.9,69.4,30.05,South,182,0.0,1.0,68,0.00,,---,0.00,VWS V13.01,2013-08-21 22:07:00,
2013-08-21 18:12:00,80.7,69.2,30.05,South,182,0.0,1.0,68,0.00,,---,0.00,VWS V13.01,2013-08-21 22:12:00,
2013-08-21 18:17:00,80.5,69.0,30.05,South,182,0.0,1.0,68,0.00,,---,0.00,VWS V13.01,2013-08-21 22:17:00,
2013-08-21 18:22:00,80.2,69.1,30.04,South,182,0.0,1.0,69,0.00,,---,0.00,VWS V13.01,2013-08-21 22:22:00,
2013-08-21 18:27:00,80.0,68.9,30.04,South,182,0.0,1.0,69,0.00,,---,0.00,VWS V13.01,2013-08-21 22:27:00,
2013-08-21 18:32:00,79.8,69.2,30.03,South,182,0.0,1.0,70,0.00,,---,0.00,VWS V13.01,2013-08-21 22:32:00,
2013-08-21 18:37:00,79.7,69.1,30.03,South,182,0.0,1.0,70,0.00,,---,0.00,VWS V13.01,2013-08-21 22:37:00,
2013-08-21 18:42:00,79.6,69.0,30.03,South,181,1.0,1.0,70,0.00,,---,0.00,VWS V13.01,2013-08-21 22:42:00,
2013-08-21 18:47:00,79.6,69.0,30.03,South,181,0.0,1.0,70,0.00,,---,0.00,VWS V13.01,2013-08-21 22:47:00,
2013-08-21 18:52:00,79.5,69.3,30.04,SSW,198,3.0,3.0,71,0.00,,---,0.00,VWS V13.01,2013-08-21 22:52:00,
2013-08-21 18:57:00,79.3,69.5,30.04,South,177,1.0,3.0,72,0.00,,---,0.00,VWS V13.01,2013-08-21 22:57:00,
2013-08-21 19:02:00,78.9,69.5,30.04,South,183,0.0,2.0,73,0.00,,---,0.00,VWS V13.01,2013-08-21 23:02:00,
2013-08-21 19:07:00,78.7,69.7,30.05,South,180,1.0,2.0,74,0.00,,---,0.00,VWS V13.01,2013-08-21 23:07:00,
2013-08-21 19:12:00,78.4,69.4,30.05,South,180,0.0,2.0,74,0.00,,---,0.00,VWS V13.01,2013-08-21 23:12:00,
2013-08-21 19:17:00,78.3,69.7,30.05,South,180,0.0,2.0,75,0.00,,---,0.00,VWS V13.01,2013-08-21 23:17:00,
2013-08-21 19:22:00,78.1,69.5,30.05,South,171,0.0,2.0,75,0.00,,---,0.00,VWS V13.01,2013-08-21 23:22:00,
2013-08-21 19:27:00,77.8,68.9,30.04,South,171,0.0,2.0,74,0.00,,---,0.00,VWS V13.01,2013-08-21 23:27:00,
2013-08-21 19:32:00,77.6,68.7,30.05,SSW,197,0.0,3.0,74,0.00,,---,0.00,VWS V13.01,2013-08-21 23:32:00,
2013-08-21 19:37:00,77.4,68.9,30.05,South,185,0.0,3.0,75,0.00,,---,0.00,VWS V13.01,2013-08-21 23:37:00,
2013-08-21 19:42:00,77.3,68.8,30.04,South,185,0.0,1.0,75,0.00,,---,0.00,VWS V13.01,2013-08-21 23:42:00,
2013-08-21 19:47:00,77.1,68.6,30.05,South,185,0.0,1.0,75,0.00,,---,0.00,VWS V13.01,2013-08-21 23:47:00,
2013-08-21 19:52:00,76.9,68.4,30.05,South,185,0.0,1.0,75,0.00,,---,0.00,VWS V13.01,2013-08-21 23:52:00,
2013-08-21 19:57:00,76.6,68.1,30.05,South,185,1.0,1.0,75,0.00,,---,0.00,VWS V13.01,2013-08-21 23:57:00,
2013-08-21 20:02:00,76.4,68.3,30.05,South,185,0.0,1.0,76,0.00,,---,0.00,VWS V13.01,2013-08-22 00:02:00,
2013-08-21 20:07:00,76.3,68.2,30.05,South,185,0.0,1.0,76,0.00,,---,0.00,VWS V13.01,2013-08-22 00:07:00,
2013-08-21 20:12:00,76.2,68.5,30.05,South,185,1.0,1.0,77,0.00,,---,0.00,VWS V13.01,2013-08-22 00:12:00,
2013-08-21 20:17:00,76.0,68.3,30.05,South,185,0.0,2.0,77,0.00,,---,0.00,VWS V13.01,2013-08-22 00:17:00,
2013-08-21 20:22:00,75.8,68.5,30.05,South,185,0.0,0.0,78,0.00,,---,0.00,VWS V13.01,2013-08-22 00:22:00,
2013-08-21 20:27:00,75.7,68.4,30.05,South,185,0.0,1.0,78,0.00,,---,0.00,VWS V13.01,2013-08-22 00:27:00,
2013-08-21 20:32:00,75.5,68.5,30.05,South,185,0.0,0.0,79,0.00,,---,0.00,VWS V13.01,2013-08-22 00:32:00,
2013-08-21 20:37:00,75.4,68.4,30.04,South,185,0.0,2.0,79,0.00,,---,0.00,VWS V13.01,2013-08-22 00:37:00,
2013-08-21 20:42:00,75.4,68.4,30.04,South,185,0.0,1.0,79,0.00,,---,0.00,VWS V13.01,2013-08-22 00:42:00,
2013-08-21 20:47:00,75.3,68.3,30.04,SW,236,2.0,3.0,79,0.00,,---,0.00,VWS V13.01,2013-08-22 00:47:00,
2013-08-21 20:52:00,75.2,68.6,30.04,SW,229,4.0,4.0,80,0.00,,---,0.00,VWS V13.01,2013-08-22 00:52:00,
2013-08-21 20:57:00,75.2,68.6,30.04,SSW,209,5.0,5.0,80,0.00,,---,0.00,VWS V13.01,2013-08-22 00:57:00,
2013-08-21 21:02:00,75.1,68.5,30.04,SSW,203,3.0,6.0,80,0.00,,---,0.00,VWS V13.01,2013-08-22 01:02:00,
2013-08-21 21:07:00,75.1,67.8,30.05,SW,218,5.0,7.0,78,0.00,,---,0.00,VWS V13.01,2013-08-22 01:07:00,
2013-08-21 21:12:00,75.2,68.2,30.06,SW,219,5.0,6.0,79,0.00,,---,0.00,VWS V13.01,2013-08-22 01:12:00,
2013-08-21 21:17:00,75.2,68.2,30.05,SSW,203,3.0,6.0,79,0.00,,---,0.00,VWS V13.01,2013-08-22 01:17:00,
2013-08-21 21:22:00,75.1,67.8,30.06,SSW,197,3.0,6.0,78,0.00,,---,0.00,VWS V13.01,2013-08-22 01:22:00,
2013-08-21 21:27:00,75.0,68.1,30.05,SW,221,3.0,6.0,79,0.00,,---,0.00,VWS V13.01,2013-08-22 01:27:00,
2013-08-21 21:32:00,74.8,67.9,30.05,SSW,211,2.0,4.0,79,0.00,,---,0.00,VWS V13.01,2013-08-22 01:32:00,
2013-08-21 21:37:00,74.5,67.2,30.05,South,187,1.0,4.0,78,0.00,,---,0.00,VWS V13.01,2013-08-22 01:37:00,
2013-08-21 21:42:00,74.3,65.9,30.05,SSW,213,4.0,7.0,75,0.00,,---,0.00,VWS V13.01,2013-08-22 01:42:00,
2013-08-21 21:47:00,74.2,65.4,30.05,SSW,201,2.0,7.0,74,0.00,,---,0.00,VWS V13.01,2013-08-22 01:47:00,
2013-08-21 21:52:00,74.2,65.4,30.05,SSW,205,4.0,4.0,74,0.00,,---,0.00,VWS V13.01,2013-08-22 01:52:00,
2013-08-21 21:57:00,74.1,65.3,30.05,SW,227,2.0,4.0,74,0.00,,---,0.00,VWS V13.01,2013-08-22 01:57:00,
2013-08-21 22:02:00,74.0,65.6,30.05,SW,221,0.0,3.0,75,0.00,,---,0.00,VWS V13.01,2013-08-22 02:02:00,
2013-08-21 22:07:00,73.8,65.4,30.05,SW,227,1.0,3.0,75,0.00,,---,0.00,VWS V13.01,2013-08-22 02:07:00,
2013-08-21 22:12:00,73.7,65.7,30.05,SW,227,0.0,3.0,76,0.00,,---,0.00,VWS V13.01,2013-08-22 02:12:00,
2013-08-21 22:17:00,73.5,65.9,30.05,SW,230,0.0,4.0,77,0.00,,---,0.00,VWS V13.01,2013-08-22 02:17:00,
2013-08-21 22:22:00,73.3,65.7,30.05,SW,230,0.0,1.0,77,0.00,,---,0.00,VWS V13.01,2013-08-22 02:22:00,
2013-08-21 22:27:00,73.0,65.0,30.06,SW,230,1.0,3.0,76,0.00,,---,0.00,VWS V13.01,2013-08-22 02:27:00,
2013-08-21 22:32:00,72.8,64.8,30.06,SW,231,4.0,5.0,76,0.00,,---,0.00,VWS V13.01,2013-08-22 02:32:00,
2013-08-21 22:37:00,72.6,64.6,30.06,SW,234,3.0,5.0,76,0.00,,---,0.00,VWS V13.01,2013-08-22 02:37:00,
2013-08-21 22:42:00,72.4,64.4,30.06,SW,229,0.0,1.0,76,0.00,,---,0.00,VWS V13.01,2013-08-22 02:42:00,
2013-08-21 22:47:00,72.4,64.4,30.06,SW,229,2.0,3.0,76,0.00,,---,0.00,VWS V13.01,2013-08-22 02:47:00,
2013-08-21 22:52:00,72.3,64.7,30.06,WSW,245,2.0,3.0,77,0.00,,---,0.00,VWS V13.01,2013-08-22 02:52:00,
2013-08-21 22:57:00,72.2,64.6,30.06,WSW,238,1.0,3.0,77,0.00,,---,0.00,VWS V13.01,2013-08-22 02:57:00,
2013-08-21 23:02:00,72.2,64.6,30.06,WSW,238,2.0,2.0,77,0.00,,---,0.00,VWS V13.01,2013-08-22 03:02:00,
2013-08-21 23:07:00,72.1,64.5,30.06,SW,224,2.0,6.0,77,0.00,,---,0.00,VWS V13.01,2013-08-22 03:07:00,
2013-08-21 23:12:00,72.0,64.8,30.06,SW,227,3.0,4.0,78,0.00,,---,0.00,VWS V13.01,2013-08-22 03:12:00,
2013-08-21 23:17:00,71.8,64.6,30.06,SSW,209,3.0,4.0,78,0.00,,---,0.00,VWS V13.01,2013-08-22 03:17:00,
2013-08-21 23:22:00,71.6,64.4,30.06,SSW,205,2.0,4.0,78,0.00,,---,0.00,VWS V13.01,2013-08-22 03:22:00,
2013-08-21 23:27:00,71.5,64.3,30.06,SW,229,5.0,5.0,78,0.00,,---,0.00,VWS V13.01,2013-08-22 03:27:00,
2013-08-21 23:32:00,71.3,64.5,30.06,WSW,253,3.0,5.0,79,0.00,,---,0.00,VWS V13.01,2013-08-22 03:32:00,
2013-08-21 23:37:00,71.1,64.6,30.06,SW,229,4.0,6.0,80,0.00,,---,0.00,VWS V13.01,2013-08-22 03:37:00,
2013-08-21 23:42:00,70.9,64.4,30.06,SW,219,3.0,7.0,80,0.00,,---,0.00,VWS V13.01,2013-08-22 03:42:00,
2013-08-21 23:47:00,70.7,64.6,30.06,SSW,210,4.0,7.0,81,0.00,,---,0.00,VWS V13.01,2013-08-22 03:47:00,
2013-08-21 23:52:00,70.6,64.5,30.06,SSW,205,1.0,6.0,81,0.00,,---,0.00,VWS V13.01,2013-08-22 03:52:00,
2013-08-21 23:57:00,70.5,64.4,30.06,WSW,251,1.0,6.0,81,0.00,,---,0.00,VWS V13.01,2013-08-22 03:57:00,